User: anonymous   Login
Location: *
(33.8649°S, 62.1526°E)
Time: 17:34:39
(UTC+00:00)
Language:

Cosmos 1184 Rocket - Orbit

View from above orbital plane
View from above orbital plane
View from above satellite
View from above satellite

Ground track
Ground track

The orbit data is extracted from the following two-line orbital elements,

1 11822U 80044B   21110.46010530  .00006185  00000-0  99493-4 0  9992
2 11822  81.2275 319.4010 0010838  61.8356 298.3986 15.52703482249892
Epoch (UTC): 20 April 2021 11:02:33
Eccentricity: 0.0010838
inclination: 81.2275°
perigee height: 401 km
apogee height: 416 km
right ascension of ascending node: 319.4010°
argument of perigee: 61.8356°
revolutions per day: 15.52703482
mean anomaly at epoch: 298.3986°
orbit number at epoch: 24989

The dashed part of the orbit path shows where the satellite is in the earth's shadow,  

DLR